Theta_e
308 309 310 311 311 310 310 307 306 300 307 311 309 311 311 311 312 311 311 315 316 318 318 319 319 316 317 317 317 317 317 318 318 318 319 319 319 319
307 307 308 309 311 312 311 306 307 305 302 311 314 312 310 309 312 310 311 316 316 318 318 317 318 316 315 315 315 315 315 316 317 317 317 317 317 318
306 306 307 308 308 310 312 310 307 306 300 307 312 313 310 309 308 309 311 310 311 316 317 317 316 316 316 315 314 314 314 314 315 316 315 315 316 318
304 305 306 306 306 309 310 310 308 308 302 301 309 311 308 308 308 307 307 308 310 313 314 315 315 315 315 314 314 313 313 313 313 314 314 315 316 317
303 305 305 305 305 306 307 308 309 308 305 303 303 306 308 308 307 307 308 308 307 312 311 312 314 314 314 313 312 312 312 312 312 312 312 313 315 315
304 305 304 305 304 305 305 306 307 307 306 301 299 301 306 306 306 304 304 306 304 304 307 309 310 311 312 312 312 311 310 311 312 312 312 313 313 314
303 303 304 305 306 306 305 305 307 305 306 304 298 300 304 303 302 304 303 303 304 306 304 305 306 307 308 309 309 310 310 311 312 312 312 312 312 312
301 302 303 304 304 307 308 309 308 305 304 303 299 302 303 304 304 304 303 302 300 307 304 304 306 305 307 307 308 309 310 310 310 310 311 311 312 313
301 302 301 301 304 303 306 308 308 310 309 307 300 302 301 305 305 305 304 304 302 305 304 302 305 304 306 305 308 308 308 308 308 309 310 311 311 313
301 301 301 301 302 302 301 302 305 307 309 307 304 304 303 305 304 306 304 305 305 305 305 299 304 303 306 306 308 307 307 307 307 308 309 309 310 311
300 300 300 300 302 303 300 302 302 305 310 312 309 306 306 307 307 304 303 301 300 302 305 302 303 302 303 303 305 307 306 306 307 307 308 309 309 311
299 299 301 301 303 302 302 302 301 304 306 307 307 307 307 306 309 306 304 301 301 300 305 302 302 301 300 308 309 311 308 307 306 307 308 308 309 309
296 298 299 301 302 303 304 303 303 305 306 303 304 301 301 302 303 305 306 305 302 301 305 304 302 304 302 301 307 309 310 309 309 307 307 308 308 309
298 300 301 302 303 304 304 305 306 306 303 302 300 299 301 303 304 306 307 307 306 304 305 305 301 300 299 299 299 305 308 309 309 308 309 308 309 309
300 302 302 303 304 304 305 305 306 303 301 301 300 302 303 304 304 303 303 303 303 304 303 301 300 301 300 299 299 301 302 306 308 308 307 306 307 309
301 300 301 303 304 305 304 304 303 301 301 300 301 302 303 301 300 301 301 303 300 300 302 303 303 300 299 299 300 300 304 301 304 305 306 306 307 309
298 299 296 298 299 298 300 299 299 300 300 301 301 299 299 299 299 303 303 300 300 304 305 306 304 303 302 301 299 302 304 304 305 305 305 304 306 310
297 298 297 296 295 295 295 296 297 298 298 299 299 298 298 300 301 299 300 301 304 305 304 304 303 301 302 304 306 304 305 304 306 306 306 304 306 311
295 294 293 293 293 294 295 296 296 297 298 297 298 300 300 298 298 299 301 304 304 304 304 305 304 302 298 297 304 301 304 305 306 306 308 308 307 310
294 293 292 294 294 295 296 295 295 296 297 299 298 297 297 297 298 301 305 304 305 304 303 304 304 304 300 300 301 304 298 307 306 305 305 306 308 308
295 294 296 296 296 296 295 295 296 296 297 295 294 294 295 297 299 305 306 305 305 304 302 303 306 308 308 306 300 299 301 298 304 305 305 304 303 305
295 295 295 295 295 294 294 294 294 295 293 292 293 294 296 298 301 306 307 305 305 304 304 305 307 307 304 301 298 299 300 302 301 300 300 301 305 300
295 295 295 294 294 294 294 294 294 293 292 292 293 294 297 297 304 306 307 307 306 305 303 303 306 307 304 303 301 300 299 300 301 300 300 300 301 302
Wind_Speed
13 13 11 11 10 10 11 8 12 10 14 13 11 12 11 11 13 14 16 20 22 20 18 17 16 18 17 16 15 15 16 16 16 15 15 15 15 15
11 13 12 10 11 10 10 9 10 13 11 13 10 9 11 10 12 15 15 14 21 20 18 17 16 17 17 16 16 16 16 16 17 16 16 16 17 17
16 15 14 13 10 10 9 9 9 10 11 12 12 9 11 12 10 11 12 13 12 21 19 16 15 16 16 15 15 17 17 17 17 18 18 18 18 18
17 16 16 11 13 12 11 12 10 12 8 12 12 10 12 13 13 13 11 11 12 18 21 18 17 18 17 16 15 16 16 17 19 20 20 19 20 18
18 17 16 15 14 11 12 12 11 9 11 8 11 10 9 9 11 11 12 11 10 10 18 19 18 18 17 17 16 16 17 18 18 19 18 18 18 17
16 16 16 16 16 14 13 13 12 11 10 8 6 8 10 9 10 11 11 10 10 10 13 13 17 20 20 20 19 19 19 19 19 18 17 18 20 19
18 17 17 20 22 19 12 13 13 11 10 10 7 9 12 11 13 11 11 10 11 10 10 10 10 11 13 19 18 21 20 20 21 21 20 19 19 20
17 17 17 21 21 25 25 25 20 12 15 11 9 13 17 10 11 11 11 10 9 9 11 11 9 11 10 10 14 17 19 22 22 21 21 20 20 20
17 16 15 14 18 17 19 23 24 26 25 14 12 15 14 13 12 15 14 12 11 6 10 10 9 10 9 10 13 15 17 17 18 21 21 21 21 20
18 17 18 18 17 16 13 13 15 16 16 14 13 14 13 10 12 12 11 13 9 8 9 9 8 11 9 9 13 16 19 20 19 20 19 20 20 21
17 18 19 20 21 21 14 15 16 14 14 23 26 21 20 14 11 8 11 10 9 9 10 9 9 9 9 9 9 17 20 20 20 21 21 19 19 19
17 18 23 20 23 23 16 14 16 15 12 13 14 19 16 14 17 14 9 10 9 7 9 10 9 6 4 6 8 8 10 19 19 18 19 19 18 12
13 13 12 19 23 25 26 15 17 13 13 9 8 7 8 9 11 12 11 9 9 9 4 9 6 6 5 2 4 6 7 8 10 12 17 17 17 16
15 11 14 23 25 24 21 23 25 18 9 8 8 8 9 10 10 10 11 9 8 10 6 11 4 6 6 4 4 4 7 7 8 9 9 12 16 17
12 17 23 24 26 22 26 26 23 10 9 9 9 9 11 10 12 10 9 10 9 10 6 8 8 10 8 7 4 4 3 6 6 7 7 8 9 10
17 15 18 21 20 18 15 17 10 10 10 8 9 9 9 8 8 8 8 7 5 5 10 11 11 13 8 7 5 5 5 4 6 7 7 7 7 7
16 14 11 11 7 5 6 10 8 7 7 8 9 9 9 8 8 6 6 5 5 7 5 3 0 4 7 7 6 7 5 3 6 7 7 7 6 8
8 2 7 9 8 9 9 9 8 9 7 8 8 7 8 7 6 5 5 6 7 6 5 4 4 3 3 3 1 5 4 4 5 7 7 7 9 10
7 10 11 10 10 10 9 8 8 5 5 4 5 6 5 6 6 5 6 7 7 6 6 5 6 5 5 3 3 8 6 5 6 6 6 7 6 7
11 11 11 10 9 10 9 8 6 4 4 4 3 4 4 4 4 6 8 8 8 8 6 4 5 5 6 3 3 3 3 7 5 7 6 5 5 11
12 11 10 10 10 9 7 6 4 3 3 3 2 1 2 3 3 8 8 10 10 8 7 6 5 12 8 6 4 3 6 16 9 6 6 8 5 6
11 11 10 10 8 8 7 6 5 5 4 3 3 2 1 3 5 8 9 9 9 7 7 6 7 8 8 7 6 6 4 8 13 16 11 1 5 5
10 10 9 8 8 7 6 6 7 6 5 4 3 2 1 3 5 8 8 7 9 9 8 5 7 9 10 9 9 7 11 6 3 6 8 11 18 22
Wind_Direction
260 258 252 253 240 235 241 232 241 244 240 219 235 213 213 206 210 206 215 194 206 205 207 210 216 222 225 231 237 244 249 252 256 259 261 265 268 269
260 259 261 260 253 247 224 235 239 238 256 258 230 215 215 209 194 211 213 191 200 204 204 209 208 215 225 231 240 247 252 255 257 256 260 265 268 267
263 262 259 263 262 255 247 230 230 230 235 253 268 222 216 214 194 205 213 207 202 209 201 199 206 219 226 230 239 247 251 252 250 254 257 259 261 260
259 256 261 258 257 254 247 239 232 234 225 245 247 243 225 218 203 189 208 210 218 198 209 206 209 216 219 228 236 243 249 251 253 254 255 256 253 251
256 255 262 263 262 257 251 245 237 235 225 216 239 265 218 222 213 195 199 211 217 195 207 216 216 216 222 228 232 238 241 243 245 249 252 253 253 250
256 254 259 261 262 261 257 251 234 234 227 216 221 246 235 214 231 195 191 207 212 211 216 227 216 223 229 235 237 233 234 236 238 239 240 242 246 247
248 253 258 262 266 263 265 256 240 231 228 222 208 226 220 209 219 201 199 194 214 218 220 222 220 225 232 236 241 233 234 233 233 235 236 235 236 240
246 248 252 258 257 254 253 249 255 220 231 227 211 216 223 210 210 208 204 201 203 202 221 234 220 230 235 232 234 230 228 227 229 232 233 234 231 232
253 252 253 253 249 251 249 249 247 245 225 225 220 216 222 214 209 211 196 201 205 175 201 235 221 233 232 231 222 222 225 233 231 230 231 230 230 230
254 257 259 258 254 248 241 254 256 244 223 219 217 220 239 227 216 220 201 199 207 208 181 241 235 241 238 238 214 218 228 234 235 233 229 228 228 228
258 258 258 258 256 249 243 240 252 250 233 218 220 215 226 245 228 205 205 188 205 210 205 232 250 245 246 244 241 209 218 228 234 232 231 226 220 222
259 257 253 249 254 246 246 243 242 246 240 236 216 214 213 224 218 209 197 195 205 223 213 212 229 231 248 237 239 241 210 221 227 229 225 220 213 216
257 255 252 248 252 251 247 236 244 249 230 209 197 181 194 195 208 211 205 199 207 218 161 204 222 221 223 248 232 216 218 220 216 218 222 216 201 209
252 246 241 242 247 247 245 238 238 245 191 185 181 185 181 188 197 194 201 208 223 239 222 198 218 224 230 213 220 212 229 227 216 208 202 202 198 201
238 249 253 247 241 243 241 236 242 220 175 175 175 183 195 192 196 198 203 209 225 238 237 223 222 223 215 224 208 207 199 217 212 203 181 184 189 197
262 266 254 244 238 227 237 240 213 164 166 177 184 181 194 194 194 192 204 200 203 229 227 225 224 214 208 209 213 238 197 199 183 189 177 171 172 188
263 240 215 225 195 213 171 128 129 146 161 174 184 181 191 194 200 177 190 175 202 193 167 160 291 150 178 180 203 224 174 158 170 162 158 157 165 193
253 210 140 120 134 115 110 115 119 137 150 170 182 187 196 190 183 180 178 193 201 160 169 167 152 162 180 170 195 168 155 146 151 155 161 159 168 184
110 94 96 99 92 93 96 98 107 108 131 166 188 187 184 180 177 171 184 178 173 152 160 154 162 154 125 115 102 40 135 141 143 157 164 163 149 158
73 80 81 81 87 93 95 96 105 133 164 162 158 174 175 166 168 185 175 160 162 154 150 140 145 141 116 101 103 90 358 137 131 114 95 78 79 117
76 77 79 79 76 76 79 89 99 100 83 90 122 122 132 164 184 169 166 161 149 139 142 131 97 102 112 103 74 61 45 59 78 120 123 107 120 137
69 70 72 76 73 72 71 66 62 61 47 37 33 28 109 170 169 166 152 147 133 125 120 111 126 114 99 97 91 80 92 78 65 67 55 90 145 135
70 71 67 66 64 59 57 53 54 43 23 16 3 346 131 134 158 153 130 124 127 122 122 129 119 119 117 116 108 88 76 77 79 79 41 31 88 96